Grand Rapids, MN

5:53 AM CDT on April 23, 2017 (GMT -0500)
Grand Rapids-Itasca County-Newstrom Field

Weather History for KGPZ - October, 2014

Change the Weather History Date:

Friday, October 17, 2014

  Actual Average Record
Temperature  
Mean Temperature 48 °F -  
Max Temperature 53 °F 53 °F 82 °F (1945)
Min Temperature 41 °F 32 °F 3 °F (1952)
Degree Days  
Heating Degree Days 18    
Moisture  
Dew Point 39 °F    
Average Humidity 76    
Maximum Humidity 93    
Minimum Humidity 51    
Precipitation  
Precipitation 0.00 in - - ()
Sea Level Pressure  
Sea Level Pressure 29.82 in    
Wind  
Wind Speed 12 mph (NNW)    
Max Wind Speed 23 mph    
Max Gust Speed 30 mph    
Visibility 10 miles    
Events      
Averages and records for this station are not official NWS values.
T = Trace of Precipitation, MM = Missing Value Source: NWS Daily Summary

Daily Weather History Graph

Daily Weather History Graph

Search for Another Location

Airport or City:

Trip Planner

Search our weather history database for the weather conditions in past years. The results will help you decide how hot, cold, wet, or windy it might be!

Date:

Astronomy

Oct. 17, 2014 Rise Set
Actual Time 7:35 AM CDT 6:22 PM CDT
Civil Twilight 7:04 AM CDT 6:53 PM CDT
Nautical Twilight 6:28 AM CDT 7:28 PM CDT
Astronomical Twilight 5:53 AM CDT 8:04 PM CDT
Moon 1:18 AM CDT (10/17) 3:30 PM CDT (10/17)
Length of Visible Light 11h 49m
Length of Day
10h 47m
Waning Crescent, 32% of the Moon is Illuminated
Oct 17
Waning Crescent
Oct 23
New
Oct 30
First Quarter
Nov 6
Full
Nov 14
Last Quarter

Hourly Weather History & Observations

Time (CDT) Temp. Windchill Dew Point Humidity Pressure Visibility Wind Dir Wind Speed Gust Speed Precip Events Conditions
12:15 AM 48.2 °F - 42.8 °F 82% 29.53 in 10.0 mi West 8.1 mph - N/A   Overcast
12:35 AM 48.2 °F - 42.8 °F 82% 29.53 in 10.0 mi West 8.1 mph - N/A   Overcast
12:55 AM 46.4 °F 41.1 °F 42.8 °F 87% 29.53 in 10.0 mi WNW 11.5 mph - N/A   Overcast
1:15 AM 46.4 °F 41.5 °F 42.8 °F 87% 29.54 in 10.0 mi WNW 10.4 mph - N/A   Overcast
1:35 AM 46.4 °F 41.1 °F 42.8 °F 87% 29.54 in 10.0 mi WNW 11.5 mph - N/A   Overcast
1:55 AM 46.4 °F 41.5 °F 42.8 °F 87% 29.55 in 10.0 mi WNW 10.4 mph 17.3 mph N/A   Overcast
2:15 AM 46.4 °F 41.9 °F 42.8 °F 87% 29.55 in 10.0 mi WNW 9.2 mph - N/A   Overcast
2:35 AM 46.4 °F 41.5 °F 42.8 °F 87% 29.55 in 10.0 mi WNW 10.4 mph - N/A   Mostly Cloudy
2:55 AM 46.4 °F 41.1 °F 42.8 °F 87% 29.55 in 10.0 mi WNW 11.5 mph - N/A   Overcast
3:15 AM 46.4 °F 41.9 °F 42.8 °F 87% 29.56 in 10.0 mi WNW 9.2 mph - N/A   Overcast
3:35 AM 46.4 °F 40.4 °F 42.8 °F 87% 29.56 in 10.0 mi NW 13.8 mph - N/A   Overcast
3:55 AM 46.4 °F 41.5 °F 42.8 °F 87% 29.57 in 10.0 mi NW 10.4 mph - N/A   Overcast
4:15 AM 46.4 °F 41.1 °F 42.8 °F 87% 29.57 in 10.0 mi NW 11.5 mph - N/A   Overcast
4:35 AM 46.4 °F 41.1 °F 42.8 °F 87% 29.58 in 10.0 mi NW 11.5 mph - N/A   Overcast
4:55 AM 46.4 °F 41.9 °F 42.8 °F 87% 29.59 in 10.0 mi NW 9.2 mph - N/A   Overcast
5:15 AM 46.4 °F 41.9 °F 42.8 °F 87% 29.60 in 10.0 mi NW 9.2 mph - N/A   Overcast
5:35 AM 48.2 °F - 44.6 °F 87% 29.61 in 10.0 mi NW 11.5 mph - N/A   Overcast
5:55 AM 48.2 °F - 42.8 °F 82% 29.62 in 10.0 mi NNW 12.7 mph - N/A   Overcast
6:15 AM 48.2 °F - 42.8 °F 82% 29.63 in 10.0 mi NNW 13.8 mph - N/A   Overcast
6:35 AM 48.2 °F - 42.8 °F 82% 29.64 in 10.0 mi NNW 9.2 mph - N/A   Overcast
6:55 AM 46.4 °F 42.4 °F 42.8 °F 87% 29.65 in 10.0 mi NNW 8.1 mph - N/A   Overcast
7:15 AM 46.4 °F 41.1 °F 41.0 °F 81% 29.67 in 10.0 mi NNW 11.5 mph - N/A   Overcast
7:35 AM 46.4 °F 40.7 °F 41.0 °F 81% 29.68 in 10.0 mi NNW 12.7 mph - N/A   Overcast
7:55 AM 48.2 °F - 41.0 °F 76% 29.69 in 10.0 mi NNW 15.0 mph - N/A   Overcast
8:15 AM 48.2 °F - 41.0 °F 76% 29.71 in 10.0 mi North 16.1 mph 20.7 mph N/A   Overcast
8:35 AM 48.2 °F - 41.0 °F 76% 29.72 in 10.0 mi North 15.0 mph 28.8 mph N/A   Overcast
8:55 AM 48.2 °F - 39.2 °F 71% 29.73 in 10.0 mi North 13.8 mph 23.0 mph N/A   Overcast
9:15 AM 46.4 °F 39.0 °F 39.2 °F 76% 29.74 in 10.0 mi NNW 19.6 mph 26.5 mph N/A   Overcast
9:35 AM 46.4 °F 40.1 °F 39.2 °F 76% 29.76 in 10.0 mi North 15.0 mph 19.6 mph N/A   Overcast
9:55 AM 46.4 °F 38.5 °F 39.2 °F 76% 29.77 in 8.0 mi North 21.9 mph 29.9 mph N/A   Overcast
10:15 AM 46.4 °F 39.0 °F 41.0 °F 81% 29.79 in 9.0 mi North 19.6 mph 26.5 mph N/A   Overcast
10:35 AM 46.4 °F 39.8 °F 42.8 °F 87% 29.80 in 2.0 mi North 16.1 mph - N/A   Overcast
10:55 AM 46.4 °F 39.8 °F 42.8 °F 87% 29.82 in 1.8 mi North 16.1 mph 20.7 mph N/A   Overcast
11:15 AM 46.4 °F 40.4 °F 42.8 °F 87% 29.83 in 2.5 mi North 13.8 mph 19.6 mph N/A   Overcast
11:35 AM 44.6 °F 38.8 °F 42.8 °F 93% 29.84 in 10.0 mi North 11.5 mph 16.1 mph N/A   Overcast
11:55 AM 44.6 °F 38.1 °F 41.0 °F 87% 29.85 in 10.0 mi North 13.8 mph 23.0 mph N/A   Overcast
12:15 PM 46.4 °F 40.4 °F 39.2 °F 76% 29.86 in 10.0 mi North 13.8 mph 24.2 mph N/A   Overcast
12:35 PM 46.4 °F 40.1 °F 41.0 °F 81% 29.87 in 10.0 mi North 15.0 mph 20.7 mph N/A   Overcast
12:55 PM 48.2 °F - 39.2 °F 71% 29.88 in 10.0 mi North 10.4 mph - N/A   Overcast
1:15 PM 48.2 °F - 39.2 °F 71% 29.88 in 10.0 mi North 10.4 mph - N/A   Overcast
1:35 PM 50.0 °F - 37.4 °F 62% 29.88 in 10.0 mi North 12.7 mph - N/A   Overcast
1:55 PM 51.8 °F - 39.2 °F 62% 29.88 in 10.0 mi NNW 16.1 mph 20.7 mph N/A   Mostly Cloudy
2:15 PM 50.0 °F - 37.4 °F 62% 29.89 in 10.0 mi NNW 16.1 mph - N/A   Overcast
2:35 PM 51.8 °F - 37.4 °F 58% 29.90 in 10.0 mi North 15.0 mph 20.7 mph N/A   Overcast
2:55 PM 51.8 °F - 37.4 °F 58% 29.90 in 10.0 mi North 15.0 mph 20.7 mph N/A   Mostly Cloudy
3:15 PM 53.6 °F - 37.4 °F 54% 29.91 in 10.0 mi North 12.7 mph 23.0 mph N/A   Overcast
3:35 PM 53.6 °F - 35.6 °F 51% 29.91 in 10.0 mi North 20.7 mph 26.5 mph N/A   Scattered Clouds
3:55 PM 51.8 °F - 35.6 °F 54% 29.92 in 10.0 mi North 15.0 mph 21.9 mph N/A   Mostly Cloudy
4:15 PM 51.8 °F - 37.4 °F 58% 29.93 in 10.0 mi North 12.7 mph 24.2 mph N/A   Overcast
4:35 PM 51.8 °F - 37.4 °F 58% 29.94 in 10.0 mi North 16.1 mph 24.2 mph N/A   Overcast
4:55 PM 48.2 °F - 37.4 °F 66% 29.95 in 10.0 mi North 18.4 mph 24.2 mph N/A   Overcast
5:15 PM 48.2 °F - 37.4 °F 66% 29.96 in 10.0 mi NNW 17.3 mph 21.9 mph N/A   Overcast
5:35 PM 48.2 °F - 37.4 °F 66% 29.97 in 10.0 mi NNW 16.1 mph 20.7 mph N/A   Overcast
5:55 PM 46.4 °F 39.8 °F 37.4 °F 71% 29.98 in 10.0 mi NNW 16.1 mph 25.3 mph N/A   Overcast
6:15 PM 46.4 °F 39.5 °F 37.4 °F 71% 29.99 in 10.0 mi North 17.3 mph 20.7 mph N/A   Overcast
6:35 PM 46.4 °F 38.3 °F 37.4 °F 71% 30.00 in 10.0 mi NNW 23.0 mph 26.5 mph N/A   Overcast
6:55 PM 44.6 °F 36.9 °F 35.6 °F 71% 30.01 in 10.0 mi North 18.4 mph 27.6 mph N/A   Overcast
7:15 PM 44.6 °F 38.8 °F 35.6 °F 71% 30.02 in 10.0 mi North 11.5 mph - N/A   Overcast
7:35 PM 44.6 °F 37.8 °F 35.6 °F 71% 30.03 in 10.0 mi NNW 15.0 mph - N/A   Overcast
7:55 PM 44.6 °F 38.1 °F 35.6 °F 71% 30.03 in 10.0 mi NNW 13.8 mph 20.7 mph N/A   Overcast
8:15 PM 44.6 °F 38.8 °F 35.6 °F 71% 30.04 in 10.0 mi North 11.5 mph 20.7 mph N/A   Overcast
8:35 PM 44.6 °F 37.8 °F 35.6 °F 71% 30.05 in 10.0 mi North 15.0 mph 19.6 mph N/A   Overcast
8:55 PM 44.6 °F 37.8 °F 35.6 °F 71% 30.06 in 10.0 mi NNW 15.0 mph - N/A   Overcast
9:15 PM 44.6 °F 38.4 °F 35.6 °F 71% 30.07 in 10.0 mi North 12.7 mph 18.4 mph N/A   Overcast
9:35 PM 44.6 °F 37.4 °F 35.6 °F 71% 30.07 in 10.0 mi North 16.1 mph 21.9 mph N/A   Overcast
9:55 PM 44.6 °F 39.2 °F 35.6 °F 71% 30.08 in 10.0 mi North 10.4 mph - N/A   Overcast
10:15 PM 42.8 °F 36.6 °F 35.6 °F 76% 30.09 in 10.0 mi North 11.5 mph - N/A   Overcast
10:35 PM 42.8 °F 35.8 °F 33.8 °F 70% 30.10 in 10.0 mi North 13.8 mph - N/A   Overcast
10:55 PM 42.8 °F 34.8 °F 33.8 °F 70% 30.10 in 10.0 mi North 17.3 mph - N/A   Overcast
11:15 PM 42.8 °F 35.8 °F 33.8 °F 70% 30.11 in 10.0 mi NNW 13.8 mph - N/A   Overcast
11:35 PM 42.8 °F 36.6 °F 33.8 °F 70% 30.11 in 10.0 mi North 11.5 mph 16.1 mph N/A   Overcast
11:55 PM 41.0 °F 33.5 °F 33.8 °F 76% 30.12 in 10.0 mi North 13.8 mph 20.7 mph N/A   Overcast